Shishmaref, AK

11:22 AM AKDT on September 28, 2016 (GMT -0800)
New Shishmaref

Weather History for PASH - February, 2013

Change the Weather History Date:

Saturday, February 16, 2013

  Actual Average Record
Temperature  
Mean Temperature -19 °F -  
Max Temperature -11 °F 2 °F 30 °F (2006)
Min Temperature -27 °F -4 °F -27 °F (1998)
Degree Days  
Heating Degree Days 84    
Moisture  
Dew Point -22 °F    
Average Humidity 70    
Maximum Humidity 100    
Minimum Humidity 44    
Precipitation  
Precipitation 0.00 in - - ()
Sea Level Pressure  
Sea Level Pressure 30.26 in    
Wind  
Wind Speed 7 mph (WNW)    
Max Wind Speed 13 mph    
Max Gust Speed -    
Visibility 10 miles    
Events      
Averages and records for this station are not official NWS values.
T = Trace of Precipitation, MM = Missing Value Source: NWS Daily Summary

Daily Weather History Graph

Daily Weather History Graph

Search for Another Location

Airport or City:

Trip Planner

Search our weather history database for the weather conditions in past years. The results will help you decide how hot, cold, wet, or windy it might be!

Date:

Astronomy

Feb. 16, 2013 Rise Set
Actual Time 10:05 AM AKST 6:32 PM AKST
Civil Twilight 9:09 AM AKST 7:28 PM AKST
Nautical Twilight 8:09 AM AKST 8:29 PM AKST
Astronomical Twilight 7:09 AM AKST 9:29 PM AKST
Moon 10:15 AM AKST (2/16) 3:49 AM AKST (2/16)
Length of Visible Light 10h 19m
Length of Day
8h 27m
Waxing Crescent, 41% of the Moon is Illuminated
Feb 16
Waxing Crescent
Feb 17
First Quarter
Feb 25
Full
Mar 4
Last Quarter
Mar 11
New

Hourly Weather History & Observations

Time (AKST) Temp. Windchill Dew Point Humidity Pressure Visibility Wind Dir Wind Speed Gust Speed Precip Events Conditions
12:16 AM -25.6 °F -43.8 °F - N/A% 30.14 in 10.0 mi NNE 6.9 mph - N/A   Clear
12:36 AM -25.6 °F -43.8 °F - N/A% 30.15 in 10.0 mi NNE 6.9 mph - N/A   Clear
12:56 AM -25.6 °F -43.8 °F - N/A% 30.16 in 10.0 mi North 6.9 mph - N/A   Clear
1:16 AM -25.6 °F -45.4 °F - N/A% 30.17 in 10.0 mi North 8.1 mph - N/A   Clear
1:36 AM -27.4 °F -45.9 °F - N/A% 30.17 in 10.0 mi North 6.9 mph - N/A   Clear
1:56 AM -27.4 °F -44.1 °F - N/A% 30.17 in 10.0 mi NNE 5.8 mph - N/A   Clear
2:16 AM -27.4 °F -41.9 °F - N/A% 30.19 in 10.0 mi NNE 4.6 mph - N/A   Clear
2:36 AM -25.6 °F -43.8 °F - N/A% 30.19 in 10.0 mi NE 6.9 mph - N/A   Clear
2:56 AM -27.4 °F -39.2 °F - N/A% 30.21 in 10.0 mi NW 3.5 mph - N/A   Clear
3:16 AM -27.4 °F - - N/A% 30.21 in 10.0 mi Calm Calm - N/A   Scattered Clouds
3:36 AM -27.4 °F - - N/A% 30.22 in 10.0 mi Calm Calm - N/A   Mostly Cloudy
3:56 AM -25.6 °F - - N/A% 30.22 in 10.0 mi Calm Calm - N/A   Overcast
4:16 AM -23.8 °F - - N/A% 30.22 in 10.0 mi Calm Calm - N/A   Overcast
4:36 AM -23.8 °F - - N/A% 30.22 in 10.0 mi Calm Calm - N/A   Overcast
4:56 AM -23.8 °F -35.0 °F - N/A% 30.22 in 10.0 mi West 3.5 mph - N/A   Overcast
5:16 AM -23.8 °F -35.0 °F - N/A% 30.23 in 10.0 mi WNW 3.5 mph - N/A   Overcast
5:36 AM -23.8 °F - - N/A% 30.23 in 10.0 mi Calm Calm - N/A   Overcast
5:56 AM -23.8 °F - - N/A% 30.24 in 10.0 mi Calm Calm - N/A   Overcast
6:16 AM -23.8 °F -37.7 °F - N/A% 30.24 in 10.0 mi SW 4.6 mph - N/A   Overcast
6:36 AM -23.8 °F -39.8 °F - N/A% 30.24 in 10.0 mi WSW 5.8 mph - N/A   Overcast
6:56 AM -25.6 °F -43.8 °F - N/A% 30.24 in 10.0 mi WSW 6.9 mph - N/A   Mostly Cloudy
7:16 AM -27.4 °F -45.9 °F - N/A% 30.24 in 10.0 mi WSW 6.9 mph - N/A   Mostly Cloudy
7:36 AM -27.4 °F -47.6 °F - N/A% 30.24 in 10.0 mi WSW 8.1 mph - N/A   Mostly Cloudy
7:56 AM -25.6 °F -45.4 °F - N/A% 30.24 in 10.0 mi SW 8.1 mph - N/A   Overcast
8:16 AM -23.8 °F -43.2 °F - N/A% 30.24 in 9.0 mi SW 8.1 mph - N/A   Overcast
8:36 AM -20.2 °F -38.8 °F -22.0 °F 91% 30.25 in 10.0 mi WSW 8.1 mph - N/A   Overcast
8:56 AM -18.4 °F -36.6 °F -29.2 °F 58% 30.25 in 10.0 mi WSW 8.1 mph - N/A   Overcast
9:16 AM -18.4 °F -33.4 °F -22.0 °F 84% 30.25 in 10.0 mi West 5.8 mph - N/A   Overcast
9:36 AM -16.6 °F -31.3 °F -27.4 °F 58% 30.25 in 10.0 mi West 5.8 mph - N/A   Overcast
9:56 AM -16.6 °F -31.3 °F -23.8 °F 70% 30.25 in 10.0 mi West 5.8 mph - N/A   Overcast
10:16 AM -11.2 °F -26.4 °F -13.0 °F 92% 30.25 in 10.0 mi WNW 6.9 mph - N/A   Overcast
10:36 AM -11.2 °F -26.4 °F -25.6 °F 49% 30.25 in 10.0 mi WNW 6.9 mph - N/A   Overcast
10:56 AM -11.2 °F -29.0 °F -14.8 °F 84% 30.25 in 10.0 mi WNW 9.2 mph - N/A   Overcast
11:16 AM -11.2 °F -30.1 °F -22.0 °F 59% 30.25 in 10.0 mi NW 10.4 mph - N/A   Overcast
11:36 AM -11.2 °F -27.8 °F -20.2 °F 64% 30.25 in 10.0 mi WNW 8.1 mph - N/A   Overcast
11:56 AM -11.2 °F -30.1 °F -18.4 °F 70% 30.25 in 10.0 mi WNW 10.4 mph - N/A   Overcast
12:16 PM -13.0 °F -31.3 °F -25.6 °F 53% 30.26 in 10.0 mi WNW 9.2 mph - N/A   Overcast
12:36 PM -14.8 °F -33.5 °F -20.2 °F 77% 30.27 in 10.0 mi WNW 9.2 mph - N/A   Partly Cloudy
12:56 PM -14.8 °F -32.2 °F -23.8 °F 64% 30.27 in 10.0 mi WNW 8.1 mph - N/A   Scattered Clouds
1:16 PM -14.8 °F -30.8 °F -22.0 °F 70% 30.28 in 10.0 mi WNW 6.9 mph - N/A   Mostly Cloudy
1:36 PM -14.8 °F -30.8 °F -25.6 °F 58% 30.28 in 10.0 mi WNW 6.9 mph - N/A   Clear
1:56 PM -14.8 °F -29.1 °F -20.2 °F 77% 30.28 in 10.0 mi West 5.8 mph - N/A   Clear
2:16 PM -16.6 °F -29.3 °F -25.6 °F 64% 30.29 in 10.0 mi West 4.6 mph - N/A   Clear
2:36 PM -13.0 °F -30.0 °F -13.0 °F 100% 30.28 in 10.0 mi NW 8.1 mph - N/A   Clear
2:56 PM -13.0 °F -28.6 °F -27.4 °F 49% 30.29 in 10.0 mi WNW 6.9 mph - N/A   Clear
3:16 PM -13.0 °F -27.0 °F -14.8 °F 92% 30.28 in 10.0 mi WNW 5.8 mph - N/A   Clear
3:36 PM -13.0 °F -28.6 °F -27.4 °F 49% 30.29 in 10.0 mi WNW 6.9 mph - N/A   Clear
3:56 PM -13.0 °F -27.0 °F -14.8 °F 92% 30.29 in 10.0 mi WNW 5.8 mph - N/A   Mostly Cloudy
4:16 PM -13.0 °F -28.6 °F -27.4 °F 49% 30.29 in 10.0 mi WNW 6.9 mph - N/A   Overcast
4:36 PM -14.8 °F -29.1 °F -16.6 °F 92% 30.29 in 10.0 mi WNW 5.8 mph - N/A   Overcast
4:56 PM -13.0 °F -30.0 °F -29.2 °F 44% 30.29 in 10.0 mi WNW 8.1 mph - N/A   Mostly Cloudy
5:16 PM -13.0 °F -30.0 °F -18.4 °F 77% 30.29 in 10.0 mi NW 8.1 mph - N/A   Scattered Clouds
5:36 PM -13.0 °F -32.4 °F -20.2 °F 70% 30.28 in 10.0 mi NW 10.4 mph - N/A   Partly Cloudy
5:56 PM -13.0 °F -30.0 °F -25.6 °F 53% 30.29 in 10.0 mi WNW 8.1 mph - N/A   Mostly Cloudy
6:16 PM -13.0 °F -30.0 °F -16.6 °F 84% 30.30 in 10.0 mi WNW 8.1 mph - N/A   Overcast
6:36 PM - - - N/A% 30.29 in 10.0 mi WNW 9.2 mph - N/A   Overcast
6:56 PM -13.0 °F -32.4 °F -22.0 °F 64% 30.30 in 10.0 mi WNW 10.4 mph - N/A   Overcast
7:16 PM -13.0 °F -32.4 °F -18.4 °F 77% 30.30 in 10.0 mi WNW 10.4 mph - N/A   Mostly Cloudy
7:36 PM -14.8 °F -35.6 °F -27.4 °F 53% 30.30 in 10.0 mi WNW 11.5 mph - N/A   Overcast
7:56 PM -14.8 °F -35.6 °F -18.4 °F 84% 30.30 in 10.0 mi WNW 11.5 mph - N/A   Scattered Clouds
8:16 PM -14.8 °F -34.6 °F -25.6 °F 58% 30.30 in 10.0 mi WNW 10.4 mph - N/A   Clear
8:36 PM -14.8 °F -35.6 °F -22.0 °F 70% 30.31 in 10.0 mi WNW 11.5 mph - N/A   Clear
8:56 PM -14.8 °F -34.6 °F -20.2 °F 77% 30.31 in 8.0 mi WNW 10.4 mph - N/A   Clear
9:16 PM -14.8 °F -35.6 °F -25.6 °F 58% 30.31 in 8.0 mi WNW 11.5 mph - N/A   Partly Cloudy
9:36 PM -14.8 °F -36.6 °F -18.4 °F 84% 30.31 in 7.0 mi WNW 12.7 mph - N/A   Scattered Clouds
9:56 PM -14.8 °F -35.6 °F -23.8 °F 64% 30.31 in 7.0 mi NW 11.5 mph - N/A   Overcast
10:16 PM -14.8 °F -36.6 °F -20.2 °F 77% 30.32 in 7.0 mi NW 12.7 mph - N/A   Overcast
10:36 PM -13.0 °F -34.3 °F -20.2 °F 70% 30.32 in 9.0 mi NW 12.7 mph - N/A   Overcast
10:56 PM -14.8 °F -36.6 °F -25.6 °F 58% 30.33 in 10.0 mi NW 12.7 mph - N/A   Overcast
11:16 PM -14.8 °F -35.6 °F -18.4 °F 84% 30.33 in 9.0 mi NW 11.5 mph - N/A   Mostly Cloudy
11:36 PM -14.8 °F -35.6 °F -27.4 °F 53% 30.33 in 8.0 mi NW 11.5 mph - N/A   Mostly Cloudy
11:56 PM -14.8 °F -34.6 °F -20.2 °F 77% 30.34 in 8.0 mi NW 10.4 mph - N/A   Scattered Clouds